Weather History for Dumas, TX

Change the Weather History Date:

Wednesday, February 13, 2013

  Actual Average (KBGD) Record (KBGD)
Temperature  
Mean Temperature 26 °F 42 °F  
Max Temperature 39 °F 54 °F 82 °F (1962)
Min Temperature 14 °F 29 °F 12 °F (1949)
Degree Days  
Heating Degree Days 38 23  
Month to date heating degree days 314  
Since 1 July heating degree days 2666  
Cooling Degree Days 0 0  
Month to date cooling degree days 0  
Year to date cooling degree days 0  
Moisture  
Dew Point 18 °F    
Average Humidity 70    
Maximum Humidity 93    
Minimum Humidity 60    
Precipitation  
Precipitation 0.00 in 0.02 in 0.30 in (1968)
Month to date precipitation 0.33  
Year to date precipitation 0.92  
Snow  
Snow 0.00 in - 3.20 in (1968)
Month to date snowfall  
Since 1 July snowfall  
Snow Depth -    
Sea Level Pressure  
Sea Level Pressure 30.00 in    
Wind  
Wind Speed 10 mph (WSW)    
Max Wind Speed 15 mph    
Max Gust Speed -    
Visibility 10 miles    
Events      
T = Trace of Precipitation, MM = Missing Value Source: NWS Daily Summary

Daily Weather History Graph

Daily Weather History Graph

Search for Another Location

Airport:

Trip Planner

Search our weather history database for the weather conditions in past years. The results will help you decide how hot, cold, wet, or windy it might be!

Date:

Astronomy

Feb. 13, 2013 Rise Set
Actual Time 7:36 AM CST 6:28 PM CST
Civil Twilight 7:10 AM CST 6:54 PM CST
Nautical Twilight 6:40 AM CST 7:24 PM CST
Astronomical Twilight 6:10 AM CST 7:54 PM CST
Moon 9:16 AM CST (2/13) 10:22 PM CST (2/13)
Length of Visible Light 11h 43m
Length of Day
10h 51m
Waxing Crescent, 14% of the Moon is Illuminated
Feb 13
Waxing Crescent
Feb 17
First Quarter
Feb 25
Full
Mar 4
Last Quarter
Mar 11
New

Hourly Weather History & Observations

Time (CST) Temp. Windchill Dew Point Humidity Pressure Visibility Wind Dir Wind Speed Gust Speed Precip Events Conditions
12:15 AM 19.4 °F 6.6 °F 15.8 °F 86% 30.05 in 10.0 mi WSW 12.7 mph - N/A   Clear
12:35 AM 17.6 °F 3.7 °F 14.0 °F 86% 30.05 in 10.0 mi West 13.8 mph - N/A   Clear
12:55 AM 19.4 °F 5.5 °F 17.6 °F 93% 30.05 in 10.0 mi West 15.0 mph - N/A   Clear
1:15 AM 19.4 °F 6.0 °F 17.6 °F 93% 30.05 in 10.0 mi WSW 13.8 mph - N/A   Clear
1:35 AM 19.4 °F 6.6 °F 17.6 °F 93% 30.05 in 10.0 mi WSW 12.7 mph - N/A   Clear
1:55 AM 21.2 °F 8.9 °F 17.6 °F 86% 30.04 in 10.0 mi West 12.7 mph - N/A   Clear
2:15 AM 19.4 °F 5.5 °F 14.0 °F 80% 30.04 in 10.0 mi West 15.0 mph - N/A   Clear
2:35 AM 19.4 °F 7.2 °F 14.0 °F 80% 30.04 in 10.0 mi West 11.5 mph - N/A   Clear
2:55 AM 19.4 °F 7.2 °F 12.2 °F 74% 30.03 in 10.0 mi West 11.5 mph - N/A   Clear
3:15 AM 19.4 °F 6.6 °F 12.2 °F 74% 30.03 in 10.0 mi West 12.7 mph - N/A   Clear
3:35 AM 21.2 °F 8.9 °F 12.2 °F 68% 30.02 in 10.0 mi West 12.7 mph - N/A   Clear
3:55 AM 17.6 °F 4.3 °F 10.4 °F 73% 30.02 in 10.0 mi West 12.7 mph - N/A   Clear
4:15 AM 17.6 °F 4.3 °F 8.6 °F 68% 30.02 in 10.0 mi West 12.7 mph - N/A   Clear
4:35 AM 17.6 °F 4.3 °F 8.6 °F 68% 30.01 in 10.0 mi West 12.7 mph - N/A   Clear
4:55 AM 17.6 °F 5.0 °F 8.6 °F 68% 30.01 in 10.0 mi West 11.5 mph - N/A   Clear
5:15 AM 17.6 °F 4.3 °F 8.6 °F 68% 30.01 in 10.0 mi West 12.7 mph - N/A   Clear
5:35 AM 19.4 °F 7.2 °F 10.4 °F 68% 30.01 in 10.0 mi West 11.5 mph - N/A   Clear
5:55 AM 19.4 °F 6.6 °F 10.4 °F 68% 30.01 in 10.0 mi West 12.7 mph - N/A   Clear
6:15 AM 21.2 °F 8.3 °F 10.4 °F 63% 30.01 in 10.0 mi West 13.8 mph - N/A   Clear
6:35 AM 21.2 °F 8.3 °F 10.4 °F 63% 30.02 in 10.0 mi West 13.8 mph - N/A   Clear
6:55 AM 15.8 °F 2.7 °F 8.6 °F 73% 30.02 in 10.0 mi West 11.5 mph - N/A   Clear
7:15 AM 14.0 °F -0.2 °F 8.6 °F 79% 30.02 in 10.0 mi West 12.7 mph - N/A   Clear
7:35 AM 15.8 °F 2.7 °F 8.6 °F 73% 30.02 in 10.0 mi West 11.5 mph - N/A   Clear
7:55 AM 17.6 °F 5.0 °F 8.6 °F 68% 30.02 in 10.0 mi West 11.5 mph - N/A   Clear
8:15 AM 17.6 °F 5.7 °F 8.6 °F 68% 30.03 in 10.0 mi WNW 10.4 mph - N/A   Clear
8:35 AM 17.6 °F 7.3 °F 8.6 °F 68% 30.03 in 10.0 mi WNW 8.1 mph - N/A   Clear
8:55 AM 17.6 °F 8.2 °F 10.4 °F 73% 30.03 in 10.0 mi WNW 6.9 mph - N/A   Clear
9:15 AM 19.4 °F 9.5 °F 12.2 °F 74% 30.03 in 10.0 mi West 8.1 mph - N/A   Clear
9:35 AM 21.2 °F 11.7 °F 12.2 °F 68% 30.03 in 10.0 mi West 8.1 mph - N/A   Clear
9:55 AM 23.0 °F 15.8 °F 14.0 °F 68% 30.03 in 10.0 mi West 5.8 mph - N/A   Clear
10:15 AM 24.8 °F 19.1 °F 14.0 °F 64% 30.03 in 10.0 mi WNW 4.6 mph - N/A   Clear
10:35 AM 26.6 °F 20.0 °F 17.6 °F 69% 30.03 in 10.0 mi West 5.8 mph - N/A   Clear
10:55 AM 30.2 °F 22.6 °F 19.4 °F 64% 30.02 in 10.0 mi WSW 8.1 mph - N/A   Clear
11:15 AM 32.0 °F 24.2 °F 21.2 °F 64% 30.03 in 10.0 mi West 9.2 mph - N/A   Clear
11:35 AM 32.0 °F 24.2 °F 21.2 °F 64% 30.03 in 10.0 mi WSW 9.2 mph - N/A   Clear
11:55 AM 32.0 °F 26.4 °F 23.0 °F 69% 30.04 in 10.0 mi WNW 5.8 mph - N/A   Clear
12:15 PM 33.8 °F 28.6 °F 23.0 °F 65% 30.03 in 10.0 mi West 5.8 mph - N/A   Clear
12:55 PM 33.8 °F 28.6 °F 23.0 °F 65% 30.02 in 10.0 mi West 5.8 mph - N/A   Clear
1:15 PM 33.8 °F 30.8 °F 23.0 °F 65% 30.00 in 10.0 mi WSW 3.5 mph - N/A   Clear
1:35 PM 35.6 °F 29.9 °F 23.0 °F 60% 29.99 in 10.0 mi WSW 6.9 mph - N/A   Clear
1:55 PM 35.6 °F 30.7 °F 24.8 °F 65% 29.98 in 10.0 mi WSW 5.8 mph - N/A   Clear
2:15 PM 35.6 °F 29.9 °F 24.8 °F 65% 29.97 in 10.0 mi WSW 6.9 mph - N/A   Clear
2:35 PM 35.6 °F 31.7 °F 28.4 °F 75% 29.96 in 10.0 mi SW 4.6 mph - N/A   Clear
2:55 PM 35.6 °F 31.7 °F 26.6 °F 70% 29.95 in 10.0 mi SSW 4.6 mph - N/A   Clear
3:15 PM 37.4 °F 32.1 °F 26.6 °F 65% 29.95 in 10.0 mi SSW 6.9 mph - N/A   Clear
3:35 PM 35.6 °F 29.9 °F 26.6 °F 70% 29.95 in 10.0 mi South 6.9 mph - N/A   Clear
3:55 PM 37.4 °F 33.8 °F 24.8 °F 60% 29.95 in 10.0 mi SW 4.6 mph - N/A   Clear
4:15 PM 37.4 °F - 28.4 °F 70% 29.95 in 10.0 mi Calm Calm - N/A   Clear
4:35 PM 39.2 °F - 26.6 °F 61% 29.95 in 10.0 mi Calm Calm - N/A   Clear
4:55 PM 39.2 °F - 26.6 °F 61% 29.95 in 10.0 mi Calm Calm - N/A   Clear
5:15 PM 39.2 °F - 26.6 °F 61% 29.95 in 10.0 mi Calm Calm - N/A   Clear
5:35 PM 37.4 °F - 26.6 °F 65% 29.95 in 10.0 mi Calm Calm - N/A   Clear
5:55 PM 39.2 °F - 26.6 °F 61% 29.95 in 10.0 mi Calm Calm - N/A   Clear
6:15 PM 37.4 °F - 24.8 °F 60% 29.95 in 10.0 mi Calm Calm - N/A   Clear
6:35 PM 35.6 °F 30.7 °F 24.8 °F 65% 29.95 in 10.0 mi SSW 5.8 mph - N/A   Clear
6:55 PM 33.8 °F 27.7 °F 23.0 °F 65% 29.95 in 10.0 mi South 6.9 mph - N/A   Clear
7:15 PM 32.0 °F 24.2 °F 23.0 °F 69% 29.95 in 10.0 mi SSW 9.2 mph - N/A   Clear
7:35 PM 32.0 °F 23.6 °F 23.0 °F 69% 29.95 in 10.0 mi South 10.4 mph - N/A   Clear
7:55 PM 32.0 °F 23.0 °F 23.0 °F 69% 29.95 in 10.0 mi South 11.5 mph - N/A   Clear
8:15 PM 32.0 °F 24.8 °F 23.0 °F 69% 29.96 in 10.0 mi SSW 8.1 mph - N/A   Clear
8:35 PM 30.2 °F 23.4 °F 21.2 °F 69% 29.96 in 10.0 mi SSW 6.9 mph - N/A   Clear
8:55 PM 30.2 °F 22.6 °F 21.2 °F 69% 29.96 in 10.0 mi SSW 8.1 mph - N/A   Clear
9:15 PM 30.2 °F 21.9 °F 21.2 °F 69% 29.97 in 10.0 mi SSW 9.2 mph - N/A   Clear
9:35 PM 28.4 °F 20.4 °F 19.4 °F 69% 29.98 in 10.0 mi SW 8.1 mph - N/A   Clear
9:55 PM 28.4 °F 19.7 °F 19.4 °F 69% 29.98 in 10.0 mi SW 9.2 mph - N/A   Clear
10:15 PM 28.4 °F 19.1 °F 19.4 °F 69% 29.98 in 10.0 mi SW 10.4 mph - N/A   Clear
10:35 PM 28.4 °F 20.4 °F 19.4 °F 69% 29.98 in 10.0 mi SSW 8.1 mph - N/A   Clear
10:55 PM 26.6 °F 20.0 °F 19.4 °F 74% 29.98 in 10.0 mi South 5.8 mph - N/A   Clear
11:15 PM 28.4 °F 23.3 °F 19.4 °F 69% 29.99 in 10.0 mi South 4.6 mph - N/A   Clear
11:35 PM 30.2 °F 21.9 °F 19.4 °F 64% 30.00 in 10.0 mi SSW 9.2 mph - N/A   Clear
11:55 PM 28.4 °F 20.4 °F 19.4 °F 69% 30.00 in 10.0 mi SW 8.1 mph - N/A   Clear